KC7O Weather Reports


Display with metric or nautical units.
time (UTC)temp
F
wind
direction
speed
MPH
gust
MPH
rain 1hr
in
rain 24hr
in
rain mn
in
humidity
%
barometer
mb
20260502170406 64 145 2.0 3.0 0.00 0.00 0.00 78 1013.2
20260502163856 62 191 1.0 3.0 0.00 0.00 0.00 82 1013.4
20260502163345 62 201 1.0 4.0 0.00 0.00 0.00 84 1013.5
20260502162851 62 245 2.0 4.0 0.00 0.00 0.00 83 1013.6
20260502162356 62 251 1.0 3.0 0.00 0.00 0.00 84 1013.4
20260502161900 62 274 1.0 3.0 0.00 0.00 0.00 84 1013.1
20260502161349 61 214 1.0 3.0 0.00 0.00 0.00 85 1013.1
20260502160853 61 138 0.0 2.0 0.00 0.00 0.00 86 1013.1
20260502160401 60 171 0.0 2.0 0.00 0.00 0.00 86 1013.2
20260502151855 58 147 0.0 3.0 0.00 0.00 0.00 90 1013.1
20260502151348 58 163 0.0 0.0 0.00 0.00 0.00 90 1013.2
20260502150855 58 178 0.0 2.0 0.00 0.00 0.00 90 1013.3
20260502150404 58 232 0.0 2.0 0.00 0.00 0.00 90 1013.4
20260502130412 55 206 0.0 0.0 0.00 0.00 0.00 95 1012.3
20260502123351 54 226 0.0 0.0 0.00 0.00 0.00 95 1012.1
20260502122854 54 226 0.0 0.0 0.00 0.00 0.00 95 1012.1
20260502122344 54 226 0.0 0.0 0.00 0.00 0.00 94 1012.1
20260502121847 54 226 0.0 0.0 0.00 0.00 0.00 94 1012.0
20260502121353 54 226 0.0 0.0 0.00 0.00 0.00 94 1011.9
20260502120857 54 226 0.0 0.0 0.00 0.00 0.00 94 1011.9
20260502120344 54 226 0.0 0.0 0.00 0.00 0.00 94 1011.9
20260502115851 54 226 0.0 0.0 0.00 0.00 0.00 94 1011.8
20260502115420 54 226 0.0 0.0 0.00 0.00 0.00 94 1011.7
20260502114846 54 226 0.0 0.0 0.00 0.00 0.00 94 1011.7
20260502114355 54 226 0.0 0.0 0.00 0.00 0.00 94 1011.8
20260502113923 54 226 0.0 0.0 0.00 0.00 0.00 94 1011.7
20260502113348 54 226 0.0 0.0 0.00 0.00 0.00 94 1011.6
20260502112917 54 226 0.0 0.0 0.00 0.00 0.00 94 1011.6
20260502112402 54 226 0.0 0.0 0.00 0.00 0.00 94 1011.6
20260502111852 54 226 0.0 0.0 0.00 0.00 0.00 93 1011.6
20260502111417 54 226 0.0 0.0 0.00 0.00 0.00 93 1011.5
20260502110849 54 226 0.0 0.0 0.00 0.00 0.00 93 1011.5
20260502110357 54 226 0.0 0.0 0.00 0.00 0.00 93 1011.5
20260502105845 54 226 0.0 0.0 0.00 0.00 0.00 93 1011.4
20260502105353 54 226 0.0 0.0 0.00 0.00 0.00 93 1011.5
20260502104921 55 226 0.0 0.0 0.00 0.00 0.00 93 1011.5
20260502104349 55 226 0.0 0.0 0.00 0.00 0.00 93 1011.4
20260502103857 55 226 0.0 0.0 0.00 0.00 0.00 93 1011.4
20260502103405 55 226 0.0 0.0 0.00 0.00 0.00 93 1011.4
20260502102853 55 226 0.0 0.0 0.00 0.00 0.00 93 1011.4
20260502102402 55 226 0.0 0.0 0.00 0.00 0.00 93 1011.2
20260502101850 55 226 0.0 0.0 0.00 0.00 0.00 93 1011.3
20260502101419 56 226 0.0 0.0 0.00 0.00 0.00 93 1011.2
20260502100847 55 226 0.0 0.0 0.00 0.00 0.00 93 1011.3
20260502100357 55 226 0.0 0.0 0.00 0.00 0.00 93 1011.3
20260502091353 55 226 0.0 0.0 0.00 0.00 0.00 92 1011.6
20260502090902 55 226 0.0 0.0 0.00 0.00 0.00 93 1011.6
20260502090350 55 226 0.0 0.0 0.00 0.00 0.00 93 1011.7
20260502071344 57 226 0.0 0.0 0.00 0.00 0.00 91 1012.5
20260502070911 57 226 0.0 0.0 0.00 0.00 0.00 91 1012.5
20260502070357 57 226 0.0 0.0 0.00 0.00 0.00 91 1012.4
20260502065850 57 226 0.0 0.0 0.00 0.00 0.00 91 1012.3
20260502065418 57 226 0.0 0.0 0.00 0.00 0.00 90 1012.4
20260502064903 57 226 0.0 0.0 0.00 0.00 0.00 90 1012.5
20260502064350 57 226 0.0 0.0 0.00 0.00 0.00 90 1012.4
20260502063917 57 226 0.0 0.0 0.00 0.00 0.00 90 1012.3
20260502063402 57 226 0.0 0.0 0.00 0.00 0.00 90 1012.3
20260502062849 57 226 0.0 0.0 0.00 0.00 0.00 90 1012.3
20260502062357 57 226 0.0 0.0 0.00 0.00 0.00 90 1012.2
20260502061846 57 226 0.0 0.0 0.00 0.00 0.00 89 1012.3
20260502061354 58 226 0.0 0.0 0.00 0.00 0.00 89 1012.3
20260502060847 58 226 0.0 0.0 0.00 0.00 0.00 89 1012.3
20260502060352 58 226 0.0 0.0 0.00 0.00 0.00 89 1012.3
20260502055901 58 226 0.0 0.0 0.00 0.00 0.00 89 1012.3
20260502055349 58 226 0.0 0.0 0.00 0.00 0.00 88 1012.4
20260502054858 58 226 0.0 0.0 0.00 0.00 0.00 88 1012.3
20260502054346 58 226 0.0 0.0 0.00 0.00 0.00 88 1012.4
20260502053854 58 226 0.0 0.0 0.00 0.00 0.00 88 1012.4
20260502053401 59 226 0.0 0.0 0.00 0.00 0.00 88 1012.4
20260502052850 59 226 0.0 0.0 0.00 0.00 0.00 87 1012.5
20260502052358 59 226 0.0 0.0 0.00 0.00 0.00 87 1012.4
20260502051846 59 226 0.0 0.0 0.00 0.00 0.00 87 1012.3
20260502051356 59 226 0.0 0.0 0.00 0.00 0.00 87 1012.3
20260502050905 59 226 0.0 0.0 0.00 0.00 0.00 86 1012.3
20260502050352 59 226 0.0 0.0 0.00 0.00 0.00 86 1012.3
20260502045900 60 226 0.0 0.0 0.00 0.00 0.00 85 1012.3
20260502045346 60 226 0.0 0.0 0.00 0.00 0.00 85 1012.3
20260502044854 60 226 0.0 0.0 0.00 0.00 0.00 85 1012.2
20260502044402 60 226 0.0 0.0 0.00 0.00 0.00 85 1012.1
20260502043848 60 226 0.0 0.0 0.00 0.00 0.00 84 1012.1
20260502043354 61 226 0.0 0.0 0.00 0.00 0.00 84 1012.1
20260502042900 61 226 0.0 0.0 0.00 0.00 0.00 84 1012.0
20260502042424 61 226 0.0 0.0 0.00 0.00 0.00 83 1011.9
20260502041851 61 226 0.0 0.0 0.00 0.00 0.00 83 1011.8
20260502041358 61 226 0.0 0.0 0.00 0.00 0.00 82 1011.8
20260502040900 62 224 0.0 0.0 0.00 0.00 0.00 82 1011.7
20260502040423 62 224 0.0 0.0 0.00 0.00 0.00 81 1011.7
20260502035848 62 224 0.0 0.0 0.00 0.00 0.00 81 1011.7
20260502035356 62 224 0.0 0.0 0.00 0.00 0.00 80 1011.5
20260502034845 63 226 0.0 1.0 0.00 0.00 0.00 80 1011.4
20260502034412 63 176 0.0 1.0 0.00 0.00 0.00 79 1011.3
20260502033850 63 214 0.0 1.0 0.00 0.00 0.00 79 1011.2
20260502033358 63 235 0.0 1.0 0.00 0.00 0.00 78 1011.1
20260502032848 64 164 0.0 0.0 0.00 0.00 0.00 78 1011.0
20260502032356 64 148 0.0 1.0 0.00 0.00 0.00 78 1011.0
20260502031847 64 145 0.0 2.0 0.00 0.00 0.00 77 1010.9
20260502031353 65 235 0.0 2.0 0.00 0.00 0.00 77 1010.9
20260502030901 65 186 0.0 2.0 0.00 0.00 0.00 76 1010.9
20260502030348 65 153 0.0 1.0 0.00 0.00 0.00 76 1010.8
20260502025858 66 227 0.0 3.0 0.00 0.00 0.00 75 1010.8
20260502025345 66 202 1.0 3.0 0.00 0.00 0.00 75 1010.7
20260502024854 66 191 0.0 2.0 0.00 0.00 0.00 74 1010.6
20260502024400 67 125 0.0 2.0 0.00 0.00 0.00 74 1010.5
20260502023849 67 242 0.0 2.0 0.00 0.00 0.00 73 1010.5
20260502023416 67 243 0.0 3.0 0.00 0.00 0.00 73 1010.4
20260502022845 68 252 0.0 3.0 0.00 0.00 0.00 72 1010.4
20260502022357 68 243 0.0 2.0 0.00 0.00 0.00 72 1010.3
20260502021845 68 243 0.0 3.0 0.00 0.00 0.00 72 1010.3
20260502021352 68 240 0.0 3.0 0.00 0.00 0.00 71 1010.2
20260502020859 69 175 1.0 3.0 0.00 0.00 0.00 71 1010.2
20260502020344 69 233 0.0 5.0 0.00 0.00 0.00 71 1010.2
20260502015851 69 153 1.0 5.0 0.00 0.00 0.00 70 1010.1
20260502015358 69 117 2.0 5.0 0.00 0.00 0.00 70 1010.1
20260502014907 70 151 1.0 3.0 0.00 0.00 0.00 69 1010.0
20260502014355 70 243 0.0 4.0 0.00 0.00 0.00 69 1010.0
20260502013844 71 225 2.0 4.0 0.00 0.00 0.00 68 1010.1
20260502013351 71 260 0.0 4.0 0.00 0.00 0.00 68 1010.0
20260502012858 72 146 2.0 5.0 0.00 0.00 0.00 67 1010.0
20260502012346 72 239 2.0 5.0 0.00 0.00 0.00 66 1009.9
20260502011857 72 239 1.0 5.0 0.00 0.00 0.00 65 1009.9
20260502011345 73 164 1.0 5.0 0.00 0.00 0.00 65 1009.9
20260502010853 73 172 1.0 4.0 0.00 0.00 0.00 64 1009.9
20260502010343 74 161 1.0 5.0 0.00 0.00 0.00 63 1009.8
20260502005851 74 176 2.0 5.0 0.00 0.00 0.00 63 1009.8
20260502005357 74 224 1.0 5.0 0.00 0.00 0.00 62 1009.8
20260502004846 74 275 1.0 5.0 0.00 0.00 0.00 62 1009.7
20260502004414 74 169 1.0 4.0 0.00 0.00 0.00 63 1009.7
20260502003858 74 219 1.0 4.0 0.00 0.00 0.00 62 1009.8
20260502003405 74 158 2.0 4.0 0.00 0.00 0.00 62 1009.8
20260502002850 74 224 3.0 5.0 0.00 0.00 0.00 61 1009.9
20260502002355 75 231 1.0 6.0 0.00 0.00 0.00 61 1009.9
20260502001902 75 278 3.0 6.0 0.00 0.00 0.00 61 1009.9
20260502001349 75 251 3.0 6.0 0.00 0.00 0.00 60 1009.9
20260502000853 75 242 3.0 6.0 0.00 0.00 0.00 60 1009.8
20260502000418 76 234 2.0 5.0 0.00 0.00 0.00 59 1009.8
20260501235844 76 274 2.0 5.0 0.00 0.00 0.00 59 1009.8
20260501235350 77 285 2.0 4.0 0.00 0.00 0.00 58 1009.8
20260501234859 77 212 2.0 5.0 0.00 0.00 0.00 58 1009.8
20260501234347 77 207 3.0 5.0 0.00 0.00 0.00 57 1009.8
20260501233855 78 187 2.0 4.0 0.00 0.00 0.00 56 1009.8
20260501233401 78 162 2.0 5.0 0.00 0.00 0.00 57 1009.7
20260501232849 78 207 1.0 5.0 0.00 0.00 0.00 56 1009.7
20260501232358 77 160 1.0 5.0 0.00 0.00 0.00 57 1009.8
20260501231850 78 261 2.0 5.0 0.00 0.00 0.00 57 1009.8
20260501231356 78 275 2.0 4.0 0.00 0.00 0.00 56 1009.8
20260501230843 78 226 3.0 5.0 0.00 0.00 0.00 56 1009.9
20260501230351 78 163 2.0 5.0 0.00 0.00 0.00 55 1009.9
20260501225918 79 171 2.0 6.0 0.00 0.00 0.00 55 1009.9
20260501225403 79 196 1.0 6.0 0.00 0.00 0.00 55 1010.0
20260501224849 79 238 2.0 5.0 0.00 0.00 0.00 55 1010.1
20260501224415 79 189 1.0 5.0 0.00 0.00 0.00 54 1010.1
20260501223902 79 176 2.0 4.0 0.00 0.00 0.00 54 1010.1
20260501223349 79 172 2.0 6.0 0.00 0.00 0.00 53 1010.1
20260501222855 79 176 3.0 6.0 0.00 0.00 0.00 53 1010.2
20260501222423 79 153 1.0 4.0 0.00 0.00 0.00 55 1010.3
20260501221845 78 212 2.0 6.0 0.00 0.00 0.00 55 1010.3
20260501221358 78 155 3.0 6.0 0.00 0.00 0.00 55 1010.5
20260501220846 78 131 2.0 4.0 0.00 0.00 0.00 55 1010.6
20260501220355 78 250 1.0 6.0 0.00 0.00 0.00 56 1010.6
20260501215843 78 227 2.0 5.0 0.00 0.00 0.00 56 1010.7
20260501215351 78 250 2.0 5.0 0.00 0.00 0.00 56 1010.9
20260501214859 78 238 1.0 4.0 0.00 0.00 0.00 56 1010.9
20260501214346 78 241 2.0 4.0 0.00 0.00 0.00 56 1011.0
20260501213856 78 177 2.0 4.0 0.00 0.00 0.00 57 1011.0
20260501213403 77 266 1.0 4.0 0.00 0.00 0.00 57 1011.1
20260501212855 77 202 0.0 4.0 0.00 0.00 0.00 57 1011.1
20260501212344 77 120 2.0 4.0 0.00 0.00 0.00 58 1011.2
20260501211854 76 183 1.0 6.0 0.00 0.00 0.00 59 1011.2
20260501211440 76 278 3.0 6.0 0.00 0.00 0.00 58 1011.3
20260501210902 77 143 1.0 5.0 0.00 0.00 0.00 59 1011.3
20260501210349 76 224 1.0 5.0 0.00 0.00 0.00 60 1011.3
20260501205856 75 188 1.0 5.0 0.00 0.00 0.00 60 1011.4
20260501205343 76 131 3.0 5.0 0.00 0.00 0.00 60 1011.5
20260501204852 75 127 3.0 5.0 0.00 0.00 0.00 61 1011.6
20260501204400 75 186 1.0 4.0 0.00 0.00 0.00 61 1011.6
20260501203844 75 271 2.0 4.0 0.00 0.00 0.00 61 1011.7
20260501203410 75 181 0.0 4.0 0.00 0.00 0.00 61 1011.7
20260501202853 75 146 2.0 5.0 0.00 0.00 0.00 62 1011.7
20260501202357 74 246 2.0 5.0 0.00 0.00 0.00 62 1011.8
20260501201905 74 214 1.0 4.0 0.00 0.00 0.00 63 1011.7
20260501201350 74 148 1.0 5.0 0.00 0.00 0.00 64 1011.7
20260501200916 73 288 0.0 5.0 0.00 0.00 0.00 65 1011.7
20260501200344 73 253 1.0 6.0 0.00 0.00 0.00 65 1011.7
20260501195851 73 274 2.0 6.0 0.00 0.00 0.00 64 1011.8
20260501195359 73 145 1.0 3.0 0.00 0.00 0.00 66 1011.8
20260501194908 72 158 2.0 4.0 0.00 0.00 0.00 66 1011.8
20260501194415 72 269 1.0 5.0 0.00 0.00 0.00 69 1011.9
20260501193843 71 264 2.0 5.0 0.00 0.00 0.00 67 1012.0
20260501193351 71 136 2.0 4.0 0.00 0.00 0.00 68 1012.1
20260501192347 71 157 3.0 6.0 0.00 0.00 0.00 69 1012.3
20260501191851 70 170 2.0 6.0 0.00 0.00 0.00 69 1012.3
20260501191400 70 280 2.0 5.0 0.00 0.00 0.00 70 1012.4
20260501190846 69 200 1.0 7.0 0.00 0.00 0.00 71 1012.5
20260501190414 69 271 3.0 7.0 0.00 0.00 0.00 70 1012.6
20260501185900 69 240 1.0 5.0 0.00 0.00 0.00 71 1012.6
20260501185347 69 135 2.0 6.0 0.00 0.00 0.00 72 1012.7
20260501184914 68 172 2.0 6.0 0.00 0.00 0.00 72 1012.7
20260501184401 68 176 1.0 4.0 0.00 0.00 0.00 74 1012.8
20260501183846 67 144 2.0 4.0 0.00 0.00 0.00 75 1012.8
20260501183353 67 168 1.0 4.0 0.00 0.00 0.00 75 1012.9
20260501182900 66 134 1.0 3.0 0.00 0.00 0.00 76 1013.0
20260501182354 66 264 1.0 2.0 0.00 0.00 0.00 76 1013.1
20260501181919 65 188 0.0 3.0 0.00 0.00 0.00 77 1013.2
20260501181347 65 221 1.0 4.0 0.00 0.00 0.00 78 1013.4
20260501180855 64 207 0.0 4.0 0.00 0.00 0.00 78 1013.4
20260501180344 64 175 0.0 1.0 0.00 0.00 0.00 79 1013.4
20260501175850 64 275 0.0 1.0 0.00 0.00 0.00 78 1013.5
20260501175356 64 249 0.0 1.0 0.00 0.00 0.00 79 1013.5
20260501174905 63 227 0.0 1.0 0.00 0.00 0.00 79 1013.5
20260501174352 63 255 0.0 4.0 0.00 0.00 0.00 80 1013.5
20260501173900 63 172 1.0 4.0 0.00 0.00 0.00 79 1013.5
20260501173350 63 208 0.0 1.0 0.00 0.00 0.00 80 1013.4
20260501172344 63 225 0.0 1.0 0.00 0.00 0.00 81 1013.4
20260501171912 62 155 0.0 2.0 0.00 0.00 0.00 82 1013.4
20260501171358 62 184 0.0 3.0 0.00 0.00 0.00 82 1013.4